This is the latest recevied weather packets stored in our database for station/object KB1JL-13. If no packets are shown the sender has not sent any weather packets the latest 10 day(s).
| Time | Temp. | Humidity | Pressure | Rain* | Wind** | Luminosity | Snow |
|---|---|---|---|---|---|---|---|
| 1778107712 | 13.33° C | 99% | 1018.9 hPa | 0 mm | - | 10 W/m² | - |
| 1778107410 | 13.33° C | 99% | 1018.5 hPa | 0 mm | - | 12 W/m² | - |
| 1778107106 | 13.33° C | 99% | 1018.5 hPa | 0 mm | - | 16 W/m² | - |
| 1778106801 | 13.33° C | 99% | 1018.5 hPa | 0 mm | - | 19 W/m² | - |
| 1778106500 | 13.33° C | 99% | 1018.9 hPa | 0 mm | - | 25 W/m² | - |
| 1778106194 | 13.33° C | 99% | 1018.5 hPa | 0 mm | - | 26 W/m² | - |
| 1778105892 | 13.33° C | 99% | 1018.5 hPa | 0 mm | - | 23 W/m² | - |
| 1778105590 | 13.33° C | 99% | 1018.2 hPa | 0 mm | - | 19 W/m² | - |
| 1778105287 | 13.33° C | 99% | 1018.5 hPa | 0 mm | - | 23 W/m² | - |
| 1778104982 | 13.33° C | 99% | 1018.9 hPa | 0 mm | - | 20 W/m² | - |
| 1778104679 | 13.33° C | 99% | 1018.9 hPa | 0 mm | - | 22 W/m² | - |
| 1778104375 | 13.33° C | 99% | 1018.9 hPa | 0 mm | - | 18 W/m² | - |
| 1778104071 | 13.33° C | 99% | 1018.9 hPa | 0 mm | - | 20 W/m² | - |
| 1778103768 | 13.33° C | 99% | 1018.5 hPa | 0 mm | - | 22 W/m² | - |
| 1778103467 | 13.33° C | 99% | 1018.5 hPa | 0 mm | - | 27 W/m² | - |
| 1778103163 | 13.33° C | 99% | 1018.5 hPa | 0 mm | - | 19 W/m² | - |
| 1778102860 | 13.33° C | 99% | 1018.5 hPa | 0 mm | - | 22 W/m² | - |
| 1778102556 | 13.33° C | 99% | 1018.5 hPa | 0 mm | - | 20 W/m² | - |
| 1778102246 | 13.33° C | 99% | 1018.2 hPa | 0 mm | - | 23 W/m² | - |
| 1778101943 | 13.89° C | 99% | 1018.5 hPa | 0 mm | - | 25 W/m² | - |
| 1778101639 | 13.89° C | 99% | 1018.5 hPa | 0 mm | - | 22 W/m² | - |
| 1778101337 | 13.89° C | 99% | 1018.2 hPa | 0 mm | - | 39 W/m² | - |
| 1778101033 | 13.89° C | 99% | 1018.9 hPa | 0 mm | - | 46 W/m² | - |
| 1778100728 | 13.89° C | 99% | 1018.5 hPa | 1.27 mm | - | 55 W/m² | - |
| 1778100426 | 13.89° C | 99% | 1018.5 hPa | 3.05 mm | - | 69 W/m² | - |
* Rain latest hour (hover to see other rain measurements)
** Current wind speed in m/s (hover to see current wind gust speed)